ACA853 EGLL-CYYZ

Flight info

Callsign ACA853
Flight time N/A
Altitude 32000
Route CPT L9 BUCGO DCT TIGWE DCT ARPAK DCT FELCA DCT FADZU DCT NICXI DCT BAKUR DCT TOMTO DCT MOMIN DCT DOGAL/M083F340 NATD NEEKO/N0474F340 N622E TAFFY/N0470F360 DCT VILRO DCT SAVEX Q806 TUKIR IMEBA9
Aircraft B77W/H-SDE1E2E3FGHIJ2J3J4J5M1RWXY/LB1D1

Departure

Time N/A
Airport London Heathrow Airport (EGLL)

Arrival

Time 2026-05-05 16:13
Airport Toronto Pearson International Airport (CYYZ)
Time Latitude Longitude Altitude Speed Heading
2026-05-05 13:03 55.05688 -38.33777 34151 ft 506 kts 263°
2026-05-05 13:03 55.05519 -38.39913 34123 ft 507 kts 263°
2026-05-05 13:04 55.05168 -38.52236 34117 ft 509 kts 263°
2026-05-05 13:04 55.04804 -38.64592 34114 ft 511 kts 263°
2026-05-05 13:05 55.04429 -38.76905 34103 ft 512 kts 263°
2026-05-05 13:05 55.04039 -38.89331 34092 ft 513 kts 263°
2026-05-05 13:06 55.03641 -39.01630 34123 ft 513 kts 262°
2026-05-05 13:06 55.03295 -39.11979 34090 ft 514 kts 262°
2026-05-05 13:07 55.02867 -39.24438 34090 ft 515 kts 262°
2026-05-05 13:07 55.02425 -39.36920 34073 ft 516 kts 261°
2026-05-05 13:08 55.01970 -39.49428 34076 ft 516 kts 261°
2026-05-05 13:08 55.01506 -39.61849 34068 ft 517 kts 261°
2026-05-05 13:09 55.01025 -39.74368 34069 ft 519 kts 260°
2026-05-05 13:09 55.00529 -39.86927 34065 ft 520 kts 260°
2026-05-05 13:10 55.00020 -39.99526 34063 ft 522 kts 260°
2026-05-05 13:10 54.99383 -40.11987 34041 ft 521 kts 258°
2026-05-05 13:11 54.98616 -40.24472 34052 ft 520 kts 258°
2026-05-05 13:11 54.97838 -40.37002 34074 ft 521 kts 257°
2026-05-05 13:12 54.97068 -40.49542 34060 ft 521 kts 257°
2026-05-05 13:12 54.96296 -40.62082 34043 ft 520 kts 257°
2026-05-05 13:13 54.95514 -40.74601 34042 ft 520 kts 257°
2026-05-05 13:13 54.94723 -40.87015 34034 ft 519 kts 257°
2026-05-05 13:14 54.93913 -40.99518 34095 ft 519 kts 256°
2026-05-05 13:14 54.93105 -41.11792 34041 ft 519 kts 256°
2026-05-05 13:15 54.92267 -41.24314 34037 ft 519 kts 256°
2026-05-05 13:15 54.91423 -41.36751 34035 ft 518 kts 255°
2026-05-05 13:16 54.90565 -41.49192 34040 ft 518 kts 255°
2026-05-05 13:16 54.89693 -41.61630 34072 ft 518 kts 255°
2026-05-05 13:17 54.88811 -41.74022 34027 ft 519 kts 255°
2026-05-05 13:17 54.87913 -41.86476 34023 ft 518 kts 255°
2026-05-05 13:18 54.87006 -41.98880 34022 ft 517 kts 255°
2026-05-05 13:18 54.86096 -42.11153 34025 ft 517 kts 255°
2026-05-05 13:19 54.85168 -42.23471 34019 ft 516 kts 255°
2026-05-05 13:19 54.84225 -42.35825 34019 ft 516 kts 255°
2026-05-05 13:20 54.83268 -42.48181 34021 ft 516 kts 254°
2026-05-05 13:20 54.82303 -42.60480 34013 ft 517 kts 254°
2026-05-05 13:21 54.81320 -42.72844 34011 ft 518 kts 254°
2026-05-05 13:21 54.80322 -42.85233 34001 ft 518 kts 254°
2026-05-05 13:22 54.79315 -42.97563 34018 ft 518 kts 255°
2026-05-05 13:22 54.78307 -43.09789 33997 ft 515 kts 255°
2026-05-05 13:23 54.77284 -43.22037 33978 ft 512 kts 255°
2026-05-05 13:23 54.76259 -43.34136 33978 ft 509 kts 255°
2026-05-05 13:24 54.75219 -43.46256 33988 ft 509 kts 255°
2026-05-05 13:24 54.74163 -43.58377 34009 ft 510 kts 256°
2026-05-05 13:25 54.73096 -43.70512 33969 ft 509 kts 255°
2026-05-05 13:25 54.72021 -43.82621 33961 ft 508 kts 255°
2026-05-05 13:26 54.70935 -43.94708 33958 ft 507 kts 255°
2026-05-05 13:26 54.69856 -44.06570 33945 ft 506 kts 255°
2026-05-05 13:27 54.68748 -44.18602 33978 ft 506 kts 255°
2026-05-05 13:27 54.67631 -44.30604 33943 ft 504 kts 255°
2026-05-05 13:28 54.66517 -44.42458 33937 ft 502 kts 255°
2026-05-05 13:28 54.65383 -44.54366 33926 ft 502 kts 255°
2026-05-05 13:29 54.64240 -44.66245 33925 ft 502 kts 255°
2026-05-05 13:29 54.63083 -44.78142 33954 ft 502 kts 255°
2026-05-05 13:30 54.61914 -44.90043 33916 ft 502 kts 255°
2026-05-05 13:30 54.60755 -45.01731 33904 ft 501 kts 255°
2026-05-05 13:31 54.59570 -45.13558 33903 ft 500 kts 255°
2026-05-05 13:31 54.58374 -45.25360 33887 ft 499 kts 255°
2026-05-05 13:32 54.57168 -45.37146 33903 ft 498 kts 255°
2026-05-05 13:32 54.55950 -45.48914 33886 ft 499 kts 255°
2026-05-05 13:33 54.54722 -45.60678 33874 ft 498 kts 255°
2026-05-05 13:33 54.53491 -45.72357 33862 ft 498 kts 255°
2026-05-05 13:34 54.52243 -45.84083 33862 ft 497 kts 254°
2026-05-05 13:34 54.50985 -45.95783 33847 ft 497 kts 254°
2026-05-05 13:35 54.49728 -46.07362 33871 ft 497 kts 255°
2026-05-05 13:35 54.48457 -46.18966 33838 ft 496 kts 254°
2026-05-05 13:36 54.47169 -46.30611 33846 ft 495 kts 254°
2026-05-05 13:36 54.45869 -46.42260 33824 ft 496 kts 254°
2026-05-05 13:37 54.44558 -46.53896 33822 ft 496 kts 254°
2026-05-05 13:37 54.43234 -46.65544 33847 ft 496 kts 254°
2026-05-05 13:38 54.41907 -46.77110 33810 ft 496 kts 254°
2026-05-05 13:38 54.40562 -46.88731 33804 ft 495 kts 254°
2026-05-05 13:39 54.39214 -47.00283 33799 ft 494 kts 254°
2026-05-05 13:39 54.37857 -47.11801 33786 ft 494 kts 254°
2026-05-05 13:40 54.36495 -47.23267 33779 ft 493 kts 254°
2026-05-05 13:40 54.35113 -47.34786 33775 ft 494 kts 254°
2026-05-05 13:41 54.33722 -47.46297 33766 ft 493 kts 254°
2026-05-05 13:41 54.32321 -47.57791 33762 ft 492 kts 254°
2026-05-05 13:42 54.30909 -47.69271 33752 ft 492 kts 253°
2026-05-05 13:42 54.29486 -47.80744 33753 ft 492 kts 253°
2026-05-05 13:43 54.28051 -47.92222 33759 ft 492 kts 254°
2026-05-05 13:43 54.26630 -48.03493 33741 ft 492 kts 253°
2026-05-05 13:44 54.25178 -48.14922 33740 ft 491 kts 253°
2026-05-05 13:44 54.23716 -48.26333 33729 ft 491 kts 253°
2026-05-05 13:45 54.22245 -48.37721 33720 ft 490 kts 253°
2026-05-05 13:45 54.20762 -48.49113 33720 ft 490 kts 253°
2026-05-05 13:46 54.19281 -48.60399 33709 ft 490 kts 253°
2026-05-05 13:46 54.18277 -48.67997 33699 ft 490 kts 253°
2026-05-05 13:47 54.17554 -48.73444 33697 ft 490 kts 253°
2026-05-05 13:47 54.16038 -48.84806 33699 ft 491 kts 253°
2026-05-05 13:48 54.14510 -48.96167 33682 ft 491 kts 253°
2026-05-05 13:48 54.12985 -49.07427 33682 ft 491 kts 253°
2026-05-05 13:49 54.11434 -49.18781 33683 ft 491 kts 253°
2026-05-05 13:49 54.09883 -49.30058 33667 ft 491 kts 253°
2026-05-05 13:50 54.08317 -49.41357 33652 ft 489 kts 253°
2026-05-05 13:50 54.06745 -49.52611 33658 ft 488 kts 253°
2026-05-05 13:51 54.05163 -49.63852 33643 ft 487 kts 253°
2026-05-05 13:51 54.03576 -49.75053 33663 ft 487 kts 253°
2026-05-05 13:52 54.01978 -49.86252 33639 ft 486 kts 253°
2026-05-05 13:52 54.00382 -49.97328 33638 ft 484 kts 251°
2026-05-05 13:53 53.98194 -50.07925 33631 ft 479 kts 244°
2026-05-05 13:53 53.95617 -50.18358 33620 ft 479 kts 243°
2026-05-05 13:54 53.93037 -50.28776 33635 ft 478 kts 244°
2026-05-05 13:54 53.90473 -50.39211 33624 ft 478 kts 244°
2026-05-05 13:55 53.88353 -50.47851 33601 ft 477 kts 244°
2026-05-05 13:55 53.85803 -50.58214 33597 ft 476 kts 244°
2026-05-05 13:56 53.83247 -50.68547 33600 ft 475 kts 244°
2026-05-05 13:56 53.80682 -50.78861 33620 ft 475 kts 244°
2026-05-05 13:57 53.78110 -50.89158 33589 ft 474 kts 244°
2026-05-05 13:57 53.75653 -50.98946 33586 ft 473 kts 244°
2026-05-05 13:58 53.73122 -51.08986 33575 ft 472 kts 244°
2026-05-05 13:58 53.70539 -51.19185 33571 ft 472 kts 244°
2026-05-05 13:59 53.66651 -51.34448 33575 ft 472 kts 244°
2026-05-05 14:00 53.62764 -51.49604 33553 ft 471 kts 244°
2026-05-05 14:00 53.60157 -51.59716 33556 ft 470 kts 244°
2026-05-05 14:01 53.57541 -51.69816 33550 ft 470 kts 244°
2026-05-05 14:01 53.54916 -51.79903 33560 ft 471 kts 244°
2026-05-05 14:02 53.52282 -51.89980 33539 ft 470 kts 244°
2026-05-05 14:02 53.49646 -52.00020 33524 ft 469 kts 244°
2026-05-05 14:03 53.47049 -52.09869 33531 ft 469 kts 244°
2026-05-05 14:03 53.44396 -52.19887 33517 ft 469 kts 243°
2026-05-05 14:04 53.41740 -52.29870 33528 ft 468 kts 244°
2026-05-05 14:04 53.39078 -52.39833 33530 ft 468 kts 244°
2026-05-05 14:05 53.36408 -52.49782 33516 ft 469 kts 244°
2026-05-05 14:05 53.33731 -52.59715 33517 ft 470 kts 243°
2026-05-05 14:06 53.31026 -52.69708 33502 ft 471 kts 243°
2026-05-05 14:06 53.28313 -52.79685 33513 ft 470 kts 244°
2026-05-05 14:07 53.25603 -52.89613 33494 ft 469 kts 244°
2026-05-05 14:07 53.22906 -52.99450 33490 ft 468 kts 243°
2026-05-05 14:08 53.20216 -53.09218 33486 ft 466 kts 243°
2026-05-05 14:08 53.17502 -53.19030 33488 ft 466 kts 243°
2026-05-05 14:09 53.14784 -53.28816 33491 ft 465 kts 244°
2026-05-05 14:09 53.12060 -53.38581 33475 ft 464 kts 244°
2026-05-05 14:10 53.09335 -53.48310 33480 ft 464 kts 244°
2026-05-05 14:10 53.06620 -53.57967 33484 ft 464 kts 244°
2026-05-05 14:11 53.03865 -53.67721 33485 ft 465 kts 243°
2026-05-05 14:11 53.01111 -53.77433 33474 ft 465 kts 243°
2026-05-05 14:12 52.98345 -53.87147 33476 ft 466 kts 243°
2026-05-05 14:12 52.95565 -53.96867 33472 ft 466 kts 243°
2026-05-05 14:13 52.92833 -54.06385 33472 ft 466 kts 243°
2026-05-05 14:13 52.90039 -54.16076 33471 ft 466 kts 243°
2026-05-05 14:14 52.87238 -54.25749 33465 ft 465 kts 243°
2026-05-05 14:14 52.84434 -54.35399 33460 ft 465 kts 243°
2026-05-05 14:15 52.81627 -54.45015 33462 ft 464 kts 243°
2026-05-05 14:15 52.78813 -54.54620 33463 ft 464 kts 243°
2026-05-05 14:16 52.75997 -54.64191 33473 ft 464 kts 243°
2026-05-05 14:16 52.73184 -54.73711 33468 ft 465 kts 244°
2026-05-05 14:17 52.70339 -54.83304 33465 ft 466 kts 244°
2026-05-05 14:17 52.67482 -54.92899 33470 ft 466 kts 244°
2026-05-05 14:18 52.64640 -55.02407 33466 ft 467 kts 243°
2026-05-05 14:18 52.61763 -55.11991 33455 ft 467 kts 244°
2026-05-05 14:19 52.58881 -55.21551 33455 ft 466 kts 244°
2026-05-05 14:19 52.56013 -55.31033 33453 ft 465 kts 244°
2026-05-05 14:20 52.53127 -55.40536 33452 ft 464 kts 244°
2026-05-05 14:20 52.50235 -55.50019 33442 ft 463 kts 244°
2026-05-05 14:21 52.47344 -55.59462 33428 ft 463 kts 244°
2026-05-05 14:21 52.44450 -55.68880 33436 ft 461 kts 244°
2026-05-05 14:22 52.41558 -55.78263 33439 ft 461 kts 243°
2026-05-05 14:22 52.38631 -55.87537 33428 ft 461 kts 242°
2026-05-05 14:23 52.35443 -55.96635 33431 ft 461 kts 240°
2026-05-05 14:23 52.32220 -56.05616 33423 ft 460 kts 240°
2026-05-05 14:24 52.29002 -56.14651 33435 ft 459 kts 240°
2026-05-05 14:24 52.25808 -56.23666 33443 ft 458 kts 241°
2026-05-05 14:25 52.22619 -56.32663 33454 ft 458 kts 241°
2026-05-05 14:25 52.19442 -56.41592 33468 ft 458 kts 240°
2026-05-05 14:26 52.16239 -56.50561 33456 ft 458 kts 241°
2026-05-05 14:26 52.13026 -56.59523 33475 ft 458 kts 240°
2026-05-05 14:27 52.09799 -56.68493 33476 ft 459 kts 240°
2026-05-05 14:27 52.06561 -56.77459 33484 ft 460 kts 240°
2026-05-05 14:28 52.03310 -56.86430 33483 ft 460 kts 241°
2026-05-05 14:28 52.00079 -56.95315 33487 ft 459 kts 241°
2026-05-05 14:29 51.96864 -57.04124 33495 ft 458 kts 241°
2026-05-05 14:29 51.93613 -57.13003 33496 ft 457 kts 241°
2026-05-05 14:30 51.90365 -57.21841 33510 ft 456 kts 240°
2026-05-05 14:30 51.87116 -57.30651 33501 ft 455 kts 241°
2026-05-05 14:31 51.83868 -57.39428 33523 ft 454 kts 241°
2026-05-05 14:31 51.80641 -57.48118 33529 ft 455 kts 241°
2026-05-05 14:32 51.79003 -57.52519 33651 ft 458 kts 241°
2026-05-05 14:32 51.77363 -57.56919 33913 ft 458 kts 241°
2026-05-05 14:32 51.75715 -57.61331 34211 ft 458 kts 240°
2026-05-05 14:32 51.74068 -57.65731 34482 ft 457 kts 240°
2026-05-05 14:33 51.72423 -57.70121 34728 ft 457 kts 240°
2026-05-05 14:33 51.70775 -57.74507 35034 ft 456 kts 240°
2026-05-05 14:33 51.69130 -57.78882 35276 ft 457 kts 240°
2026-05-05 14:33 51.67479 -57.83264 35438 ft 458 kts 240°
2026-05-05 14:34 51.64154 -57.92068 35524 ft 461 kts 240°
2026-05-05 14:34 51.60855 -58.00769 35552 ft 458 kts 240°
2026-05-05 14:35 51.57557 -58.09438 35551 ft 456 kts 240°
2026-05-05 14:35 51.54243 -58.18122 35556 ft 455 kts 240°
2026-05-05 14:36 51.50927 -58.26782 35552 ft 454 kts 240°
2026-05-05 14:36 51.47607 -58.35423 35566 ft 455 kts 240°
2026-05-05 14:37 51.44295 -58.44015 35564 ft 456 kts 240°
2026-05-05 14:37 51.40946 -58.52673 35556 ft 457 kts 240°
2026-05-05 14:38 51.37586 -58.61330 35571 ft 457 kts 240°
2026-05-05 14:38 51.34218 -58.69979 35570 ft 458 kts 240°
2026-05-05 14:39 51.30840 -58.78623 35572 ft 458 kts 240°
2026-05-05 14:39 51.27461 -58.87243 35576 ft 458 kts 240°
2026-05-05 14:40 51.24078 -58.95840 35569 ft 456 kts 240°
2026-05-05 14:40 51.20730 -59.04323 35575 ft 455 kts 240°
2026-05-05 14:41 51.17370 -59.12808 35576 ft 455 kts 240°
2026-05-05 14:41 51.13991 -59.21315 35579 ft 454 kts 240°
2026-05-05 14:42 51.10606 -59.29809 35559 ft 454 kts 240°
2026-05-05 14:42 51.07216 -59.38284 35573 ft 453 kts 240°
2026-05-05 14:43 51.03826 -59.46735 35588 ft 453 kts 240°
2026-05-05 14:43 51.00428 -59.55178 35585 ft 453 kts 240°
2026-05-05 14:44 50.97031 -59.63589 35587 ft 453 kts 240°
2026-05-05 14:44 50.93644 -59.71950 35584 ft 453 kts 240°
2026-05-05 14:45 50.90211 -59.80398 35593 ft 453 kts 240°
2026-05-05 14:45 50.86816 -59.88724 35595 ft 452 kts 240°
2026-05-05 14:46 50.83393 -59.97093 35605 ft 452 kts 240°
2026-05-05 14:46 50.79997 -60.05368 35591 ft 453 kts 240°
2026-05-05 14:47 50.77146 -60.12292 35605 ft 452 kts 240°
2026-05-05 14:47 50.73150 -60.21972 35623 ft 451 kts 240°
2026-05-05 14:48 50.70273 -60.28918 35630 ft 451 kts 240°
2026-05-05 14:48 50.66837 -60.37188 35628 ft 451 kts 240°
2026-05-05 14:49 50.63398 -60.45442 35616 ft 450 kts 240°
2026-05-05 14:49 50.59980 -60.53616 35639 ft 449 kts 240°
2026-05-05 14:50 50.56545 -60.61807 35647 ft 448 kts 240°
2026-05-05 14:50 50.53105 -60.69984 35663 ft 448 kts 240°
2026-05-05 14:51 50.49663 -60.78144 35661 ft 447 kts 240°
2026-05-05 14:51 50.46236 -60.86239 35667 ft 447 kts 240°
2026-05-05 14:52 50.42793 -60.94347 35671 ft 446 kts 240°
2026-05-05 14:52 50.39534 -61.01999 35685 ft 446 kts 240°
2026-05-05 14:53 50.36082 -61.10082 35682 ft 446 kts 240°
2026-05-05 14:53 50.32626 -61.18148 35669 ft 446 kts 240°
2026-05-05 14:54 50.29167 -61.26193 35680 ft 443 kts 240°
2026-05-05 14:54 50.24630 -61.36713 35687 ft 440 kts 240°
2026-05-05 14:55 50.10973 -61.68126 35691 ft 434 kts 240°
2026-05-05 14:55 49.97403 -61.98977 35730 ft 432 kts 240°
2026-05-05 14:56 49.83963 -62.29180 35712 ft 433 kts 240°
2026-05-05 14:56 49.70072 -62.60040 35743 ft 435 kts 240°
2026-05-05 14:57 49.56197 -62.90507 35751 ft 438 kts 239°
2026-05-05 14:57 49.42195 -63.20903 35761 ft 441 kts 239°
2026-05-05 14:58 49.27879 -63.51626 35745 ft 443 kts 239°
2026-05-05 14:58 49.13470 -63.82195 35724 ft 441 kts 239°
2026-05-05 14:59 48.99288 -64.11946 35736 ft 436 kts 239°
2026-05-05 14:59 48.85268 -64.41034 35657 ft 420 kts 239°
2026-05-05 15:00 48.73672 -64.64879 35739 ft 429 kts 239°
2026-05-05 15:00 48.56773 -64.99214 35714 ft 431 kts 238°
2026-05-05 15:01 48.42819 -65.27255 35730 ft 421 kts 238°
2026-05-05 15:01 48.28371 -65.55991 35775 ft 438 kts 238°
2026-05-05 15:02 48.13832 -65.84578 35699 ft 424 kts 238°
2026-05-05 15:02 47.99798 -66.11917 35749 ft 422 kts 237°
2026-05-05 15:03 47.85129 -66.40190 35726 ft 435 kts 237°
2026-05-05 15:03 47.70506 -66.68076 35665 ft 418 kts 237°
2026-05-05 15:04 47.56195 -66.95115 35721 ft 426 kts 236°
2026-05-05 15:04 47.41447 -67.22692 35690 ft 432 kts 236°
2026-05-05 15:05 47.30689 -67.52923 35738 ft 410 kts 249°
2026-05-05 15:05 47.26138 -67.68393 35739 ft 415 kts 249°
2026-05-05 15:06 47.16741 -67.99965 35707 ft 422 kts 249°
2026-05-05 15:06 47.07545 -68.30472 35664 ft 405 kts 248°
2026-05-05 15:07 46.98255 -68.60936 35728 ft 418 kts 248°
2026-05-05 15:07 46.88575 -68.92268 35665 ft 419 kts 248°
2026-05-05 15:08 46.79256 -69.22075 35679 ft 407 kts 248°
2026-05-05 15:08 46.69646 -69.52464 35717 ft 421 kts 247°
2026-05-05 15:09 46.59738 -69.83400 35632 ft 414 kts 246°
2026-05-05 15:09 46.50185 -70.12893 35690 ft 409 kts 246°
2026-05-05 15:10 46.40219 -70.43304 35703 ft 422 kts 246°
2026-05-05 15:10 46.30320 -70.73153 35650 ft 404 kts 245°
2026-05-05 15:11 46.20612 -71.02110 35758 ft 413 kts 245°
2026-05-05 15:11 46.10453 -71.32065 35669 ft 411 kts 245°
2026-05-05 15:12 46.00515 -71.61044 35682 ft 399 kts 245°
2026-05-05 15:12 45.93124 -71.82398 35727 ft 411 kts 244°
2026-05-05 15:13 45.90559 -71.89765 35682 ft 413 kts 244°
2026-05-05 15:13 45.87986 -71.97138 35702 ft 413 kts 244°
2026-05-05 15:14 45.85441 -72.04407 35691 ft 410 kts 244°
2026-05-05 15:14 45.82883 -72.11699 35670 ft 407 kts 244°
2026-05-05 15:15 45.80357 -72.18877 35671 ft 404 kts 244°
2026-05-05 15:15 45.77825 -72.26051 35658 ft 403 kts 244°
2026-05-05 15:16 45.75294 -72.33207 35681 ft 402 kts 244°
2026-05-05 15:16 45.72754 -72.40366 35667 ft 404 kts 244°
2026-05-05 15:17 45.70204 -72.47539 35679 ft 405 kts 243°
2026-05-05 15:17 45.67641 -72.54728 35689 ft 406 kts 243°
2026-05-05 15:18 45.65063 -72.61945 35684 ft 407 kts 243°
2026-05-05 15:18 45.62781 -72.69264 35692 ft 406 kts 251°
2026-05-05 15:19 45.61381 -72.77108 35679 ft 408 kts 258°
2026-05-05 15:19 45.60808 -72.85190 35683 ft 410 kts 263°
2026-05-05 15:20 45.60417 -72.93304 35673 ft 410 kts 263°
2026-05-05 15:20 45.60017 -73.01332 35677 ft 410 kts 263°
2026-05-05 15:21 45.59586 -73.09477 35660 ft 411 kts 262°
2026-05-05 15:21 45.59141 -73.17613 35640 ft 411 kts 262°
2026-05-05 15:22 45.58691 -73.25717 35649 ft 412 kts 262°
2026-05-05 15:22 45.58229 -73.33893 35630 ft 415 kts 262°
2026-05-05 15:23 45.57761 -73.42112 35642 ft 414 kts 262°
2026-05-05 15:23 45.57290 -73.50289 35623 ft 412 kts 262°
2026-05-05 15:24 45.56819 -73.58359 35623 ft 409 kts 262°
2026-05-05 15:24 45.56340 -73.66442 35630 ft 408 kts 262°
2026-05-05 15:25 45.55857 -73.74520 35626 ft 407 kts 262°
2026-05-05 15:25 45.55368 -73.82578 35631 ft 407 kts 262°
2026-05-05 15:26 45.54873 -73.90644 35633 ft 408 kts 262°
2026-05-05 15:26 45.54372 -73.98732 35627 ft 410 kts 262°
2026-05-05 15:27 45.53871 -74.06706 35631 ft 411 kts 262°
2026-05-05 15:27 45.53357 -74.14827 35630 ft 411 kts 262°
2026-05-05 15:28 45.52835 -74.22968 35639 ft 412 kts 262°
2026-05-05 15:28 45.52308 -74.31096 35618 ft 411 kts 262°
2026-05-05 15:29 45.51777 -74.39220 35616 ft 409 kts 262°
2026-05-05 15:29 45.51185 -74.47283 35609 ft 408 kts 258°
2026-05-05 15:30 45.50102 -74.55159 35600 ft 408 kts 257°
2026-05-05 15:30 45.48973 -74.63098 35601 ft 409 kts 257°
2026-05-05 15:31 45.47851 -74.71041 35613 ft 408 kts 257°
2026-05-05 15:31 45.46733 -74.78958 35600 ft 407 kts 257°
2026-05-05 15:32 45.45613 -74.86845 35601 ft 405 kts 256°
2026-05-05 15:32 45.44492 -74.94702 35600 ft 404 kts 256°
2026-05-05 15:33 45.43386 -75.02414 35602 ft 404 kts 256°
2026-05-05 15:33 45.42253 -75.10257 35621 ft 404 kts 256°
2026-05-05 15:34 45.41113 -75.18101 35606 ft 405 kts 256°
2026-05-05 15:34 45.39966 -75.25968 35602 ft 406 kts 256°
2026-05-05 15:35 45.38813 -75.33838 35602 ft 406 kts 256°
2026-05-05 15:35 45.37660 -75.41666 35599 ft 407 kts 256°
2026-05-05 15:36 45.36493 -75.49553 35597 ft 407 kts 256°
2026-05-05 15:36 45.35520 -75.56096 35623 ft 407 kts 256°
2026-05-05 15:37 45.34345 -75.63961 35602 ft 406 kts 256°
2026-05-05 15:37 45.33168 -75.71802 35601 ft 405 kts 256°
2026-05-05 15:38 45.31987 -75.79632 35596 ft 404 kts 256°
2026-05-05 15:38 45.30820 -75.87325 35595 ft 403 kts 256°
2026-05-05 15:39 45.29640 -75.95069 35580 ft 403 kts 256°
2026-05-05 15:39 45.28463 -76.02761 35608 ft 403 kts 256°
2026-05-05 15:40 45.27270 -76.10521 35601 ft 402 kts 256°
2026-05-05 15:40 45.26070 -76.18292 35593 ft 402 kts 256°
2026-05-05 15:41 45.24718 -76.25985 35589 ft 400 kts 249°
2026-05-05 15:41 45.22578 -76.33217 35597 ft 400 kts 246°
2026-05-05 15:42 45.20323 -76.40430 35603 ft 400 kts 246°
2026-05-05 15:42 45.18100 -76.47674 35610 ft 401 kts 246°
2026-05-05 15:43 45.15900 -76.54943 35602 ft 401 kts 247°
2026-05-05 15:43 45.13709 -76.62203 35612 ft 401 kts 247°
2026-05-05 15:44 45.11511 -76.69472 35609 ft 402 kts 247°
2026-05-05 15:44 45.09302 -76.76757 35610 ft 402 kts 247°
2026-05-05 15:45 45.07088 -76.84037 35621 ft 402 kts 246°
2026-05-05 15:45 45.04865 -76.91321 35614 ft 403 kts 247°
2026-05-05 15:46 45.02650 -76.98562 35604 ft 403 kts 247°
2026-05-05 15:46 45.00439 -77.05768 35618 ft 404 kts 247°
2026-05-05 15:47 44.98202 -77.13037 35616 ft 404 kts 246°
2026-05-05 15:47 44.95989 -77.20209 35603 ft 387 kts 246°
2026-05-05 15:48 44.93875 -77.27040 35618 ft 377 kts 246°
2026-05-05 15:48 44.91745 -77.33907 35659 ft 387 kts 247°
2026-05-05 15:49 44.89584 -77.40857 35637 ft 387 kts 247°
2026-05-05 15:49 44.87452 -77.47689 35293 ft 374 kts 247°
2026-05-05 15:49 44.86411 -77.51023 34933 ft 369 kts 247°
2026-05-05 15:50 44.85381 -77.54314 34518 ft 365 kts 247°
2026-05-05 15:50 44.84359 -77.57577 34060 ft 363 kts 247°
2026-05-05 15:50 44.83344 -77.60813 33608 ft 360 kts 247°
2026-05-05 15:50 44.82348 -77.63984 33100 ft 358 kts 247°
2026-05-05 15:51 44.81342 -77.67182 32619 ft 355 kts 247°
2026-05-05 15:51 44.80349 -77.70339 32152 ft 352 kts 247°
2026-05-05 15:51 44.79360 -77.73476 31695 ft 349 kts 247°
2026-05-05 15:51 44.78381 -77.76582 31243 ft 346 kts 247°
2026-05-05 15:52 44.77406 -77.79667 30831 ft 343 kts 247°
2026-05-05 15:52 44.76439 -77.82722 30389 ft 341 kts 247°
2026-05-05 15:52 44.75405 -77.85716 29918 ft 339 kts 244°
2026-05-05 15:52 44.74246 -77.88585 29463 ft 337 kts 242°
2026-05-05 15:53 44.73049 -77.91421 28969 ft 334 kts 242°
2026-05-05 15:53 44.71878 -77.94182 28535 ft 331 kts 242°
2026-05-05 15:53 44.70711 -77.96951 28105 ft 327 kts 242°
2026-05-05 15:53 44.69557 -77.99706 27660 ft 324 kts 242°
2026-05-05 15:54 44.68445 -78.02375 27233 ft 321 kts 242°
2026-05-05 15:54 44.67321 -78.05079 26821 ft 319 kts 242°
2026-05-05 15:54 44.66208 -78.07758 26401 ft 316 kts 242°
2026-05-05 15:54 44.65106 -78.10415 25987 ft 314 kts 242°
2026-05-05 15:55 44.63150 -78.15122 25273 ft 310 kts 242°
2026-05-05 15:55 44.58864 -78.25416 23707 ft 302 kts 241°
2026-05-05 15:55 44.54640 -78.35501 22037 ft 296 kts 240°
2026-05-05 15:55 44.50509 -78.45330 20586 ft 297 kts 240°
2026-05-05 15:56 44.46336 -78.55226 19222 ft 290 kts 240°
2026-05-05 15:56 44.42296 -78.64778 17738 ft 281 kts 239°
2026-05-05 15:56 44.38360 -78.74048 16236 ft 272 kts 239°
2026-05-05 15:56 44.34740 -78.82554 14925 ft 264 kts 239°
2026-05-05 15:57 44.33807 -78.84741 14622 ft 261 kts 239°
2026-05-05 15:57 44.32877 -78.86919 14295 ft 259 kts 239°
2026-05-05 15:57 44.31958 -78.89071 13977 ft 257 kts 239°
2026-05-05 15:57 44.31055 -78.91184 13656 ft 255 kts 239°
2026-05-05 15:58 44.30167 -78.93260 13316 ft 254 kts 239°
2026-05-05 15:58 44.29246 -78.95413 12957 ft 252 kts 239°
2026-05-05 15:58 44.28352 -78.97502 12627 ft 249 kts 239°
2026-05-05 15:58 44.27465 -78.99570 12271 ft 248 kts 239°
2026-05-05 15:59 44.26588 -79.01614 11915 ft 251 kts 239°
2026-05-05 15:59 44.25693 -79.03696 11552 ft 250 kts 239°
2026-05-05 15:59 44.24774 -79.05746 11162 ft 249 kts 234°
2026-05-05 15:59 44.23654 -79.07591 10797 ft 249 kts 230°
2026-05-05 16:00 44.22469 -79.09349 10444 ft 248 kts 229°
2026-05-05 16:00 44.21296 -79.11074 10090 ft 248 kts 229°
2026-05-05 16:00 44.20113 -79.12823 9722 ft 248 kts 230°
2026-05-05 16:00 44.18933 -79.14578 9348 ft 248 kts 230°
2026-05-05 16:01 44.17757 -79.16336 8953 ft 247 kts 230°
2026-05-05 16:01 44.16591 -79.18085 8579 ft 246 kts 230°
2026-05-05 16:01 44.15423 -79.19842 8192 ft 247 kts 230°
2026-05-05 16:01 44.14265 -79.21582 8005 ft 240 kts 230°
2026-05-05 16:02 44.13161 -79.23241 7990 ft 227 kts 231°
2026-05-05 16:02 44.12117 -79.24812 7978 ft 214 kts 230°
2026-05-05 16:02 44.11140 -79.26281 7969 ft 202 kts 231°
2026-05-05 16:02 44.10173 -79.27740 7985 ft 206 kts 230°
2026-05-05 16:03 44.09212 -79.29184 7983 ft 204 kts 230°
2026-05-05 16:03 44.08247 -79.30634 7801 ft 204 kts 230°
2026-05-05 16:03 44.07146 -79.31860 7585 ft 207 kts 211°
2026-05-05 16:03 44.05750 -79.32456 7398 ft 216 kts 196°
2026-05-05 16:04 44.04226 -79.32591 7195 ft 221 kts 191°
2026-05-05 16:04 44.02683 -79.32633 7009 ft 222 kts 190°
2026-05-05 16:04 44.01132 -79.32670 6823 ft 223 kts 190°
2026-05-05 16:04 43.99583 -79.32712 6684 ft 222 kts 190°
2026-05-05 16:05 43.98040 -79.32761 6556 ft 221 kts 190°
2026-05-05 16:05 43.96516 -79.32815 6397 ft 217 kts 191°
2026-05-05 16:05 43.95043 -79.32868 6198 ft 211 kts 191°
2026-05-05 16:05 43.93584 -79.32924 6003 ft 210 kts 191°
2026-05-05 16:06 43.92113 -79.32984 5794 ft 212 kts 190°
2026-05-05 16:06 43.90701 -79.33283 5552 ft 200 kts 213°
2026-05-05 16:06 43.89626 -79.34395 5356 ft 192 kts 225°
2026-05-05 16:06 43.88624 -79.35647 5246 ft 194 kts 227°
2026-05-05 16:07 43.87647 -79.36974 5082 ft 199 kts 229°
2026-05-05 16:07 43.86675 -79.38355 4878 ft 201 kts 229°
2026-05-05 16:07 43.85707 -79.39757 4660 ft 200 kts 229°
2026-05-05 16:07 43.84755 -79.41144 4460 ft 197 kts 229°
2026-05-05 16:08 43.83821 -79.42510 4246 ft 193 kts 229°
2026-05-05 16:08 43.82901 -79.43854 4083 ft 191 kts 229°
2026-05-05 16:08 43.82058 -79.45084 4012 ft 183 kts 229°
2026-05-05 16:08 43.81210 -79.46322 3929 ft 184 kts 229°
2026-05-05 16:09 43.80321 -79.47620 3660 ft 186 kts 229°
2026-05-05 16:09 43.79430 -79.48919 3417 ft 185 kts 229°
2026-05-05 16:09 43.78561 -79.50185 3212 ft 177 kts 229°
2026-05-05 16:09 43.77727 -79.51402 2940 ft 172 kts 229°
2026-05-05 16:10 43.76895 -79.52614 2743 ft 172 kts 229°
2026-05-05 16:10 43.76083 -79.53799 2490 ft 168 kts 229°
2026-05-05 16:10 43.75285 -79.54960 2267 ft 166 kts 229°
2026-05-05 16:10 43.74498 -79.56105 2046 ft 159 kts 230°
2026-05-05 16:11 43.73784 -79.57144 1818 ft 144 kts 231°
2026-05-05 16:11 43.71766 -79.60146 1311 ft 146 kts 234°
2026-05-05 16:12 43.71086 -79.61166 1111 ft 144 kts 229°
2026-05-05 16:12 43.69682 -79.63110 699 ft 145 kts 231°
2026-05-05 16:13 43.68140 -79.65355 573 ft 35 kts 225°
2026-05-05 16:13 43.67931 -79.65478 573 ft 27 kts 195°
2026-05-05 16:13 43.67847 -79.65396 574 ft 14 kts 72°
2026-05-05 16:14 43.67974 -79.65189 576 ft 14 kts 45°
2026-05-05 16:14 43.68192 -79.64876 575 ft 33 kts 46°
2026-05-05 16:15 43.68496 -79.64432 575 ft 31 kts 46°
2026-05-05 16:15 43.68787 -79.64010 581 ft 30 kts 46°
2026-05-05 16:16 43.69017 -79.63618 576 ft 21 kts 107°
2026-05-05 16:16 43.68814 -79.63328 572 ft 21 kts 136°
2026-05-05 16:17 43.68572 -79.63013 569 ft 40 kts 137°
2026-05-05 16:17 43.68317 -79.62685 575 ft 52 kts 136°
2026-05-05 16:18 43.67840 -79.61995 574 ft 47 kts 132°
2026-05-05 16:18 43.67612 -79.61699 571 ft 44 kts 136°
2026-05-05 16:18 43.67278 -79.61230 571 ft 26 kts 101°
2026-05-05 16:19 43.67365 -79.61021 572 ft 26 kts 52°
2026-05-05 16:19 43.67475 -79.60824 570 ft 26 kts 52°
2026-05-05 16:19 43.67654 -79.60639 571 ft 15 kts 336°
2026-05-05 16:20 43.67684 -79.60899 573 ft 9 kts 269°
2026-05-05 16:20 43.67683 -79.60919 573 ft 0 kts 269°